Location: Highland Woods Mobile Home Park
(32.0350°N, 81.2513°W)
Time: 05:03:12
(UTC+00:00)

Daily predictions for brighter satellites

Satellite Brightness Start Highest point End
(mag) Time Altitude Azimuth Time Altitude Azimuth Time Altitude Azimuth
COSMO-SKYMED 1 4.3 00:00:25 10° N 00:04:20 34° WNW 00:08:14 10° SW
IUS-26 SRM-1 3.6 00:01:24 10° WSW 00:05:29 28° S 00:06:04 25° SSE
OAO 2 Rocket 3.2 00:00:57 10° WSW 00:05:56 82° NNW 00:07:50 38° ENE
Cosmos 2278 4.3 00:01:11 10° SSE 00:06:08 32° ESE 00:06:19 32° E
SeaSat 1 4.1 00:11:24 17° NNE 00:11:24 17° NNE 00:13:16 10° N
YAOGAN 1 2.4 00:08:48 10° SSE 00:13:05 75° ENE 00:17:25 10° N
Cosmos 2315 Rocket 4.4 00:08:49 10° SSE 00:19:50 11° NNE 00:19:57 10° NNE
Cosmos 2219 3.2 00:09:14 10° NNW 00:14:54 58° ENE 00:17:55 27° SE
S3M 3.8 00:12:32 10° S 00:18:38 87° E 00:24:46 10° N
Cosmos 1812 Rocket 3.5 00:16:07 10° S 00:20:07 58° ESE 00:20:07 58° ESE
CZ-2C R/B 3.2 00:16:34 10° SSE 00:22:24 87° ENE 00:28:10 10° N
Cosmos 1315 Rocket 2.6 00:19:50 10° S 00:23:44 87° W 00:24:26 59° N
Cosmos 1892 2.6 00:22:20 10° N 00:26:14 84° W 00:26:14 84° W
Cosmos 968 Rocket 3.6 00:23:46 10° N 00:28:17 52° NE 00:28:17 52° NE
Cosmos 2369 3.6 00:23:11 10° SSW 00:28:54 87° ESE 00:32:24 25° NNE
Hubble Space Telescope 3.4 00:28:11 10° SW 00:29:50 12° SSW 00:31:27 10° S
Delta 2 Rocket 3.9 00:25:12 10° WNW 00:30:39 80° NNE 00:31:32 63° E
Meteor 2-10 Rocket 4.0 00:26:34 10° SSW 00:31:57 62° W 00:37:09 10° N
Timation 2 Rocket 4.4 00:25:34 10° NNW 00:32:12 69° WSW 00:39:00 10° S
Atlas Centaur 2 3.1 00:24:00 10° WSW 00:32:31 72° S 00:35:21 45° E
Okean-O 3.7 00:30:06 10° S 00:34:19 45° W 00:38:34 10° NNW
CRYOSAT 2 4.4 00:30:12 10° N 00:35:03 76° W 00:39:54 10° SSW
ARGOS 3.6 00:36:35 45° NNE 00:36:35 45° NNE 00:40:36 10° N
NOSS 3-3 (A) 4.3 00:32:02 10° SW 00:37:33 58° WNW 00:41:50 20° NNE
NOSS 3-3 (C) 4.3 00:32:06 10° SW 00:37:41 58° WNW 00:41:57 20° NNE
Cosmos 1486 Rocket 3.9 00:35:54 10° NNW 00:41:03 77° NE 00:41:03 77° NE
Delta 142 4.5 00:39:13 10° W 00:44:13 55° S 00:44:45 53° SSE
SJ-11-01 4.4 00:46:20 72° WNW 00:46:20 72° WNW 00:50:46 10° NNW
CSL-04 Rocket 3.8 00:46:02 17° S 00:50:19 75° WSW 00:55:52 10° NNW
Cosmos 2227 Rocket 2.1 00:45:36 10° NNW 00:51:13 87° NW 00:51:13 87° NW
GEOS 3 Rocket 4.3 00:57:17 46° NNW 00:57:17 46° NNW 01:01:06 10° NNW
Cosmos 1697 Rocket 3.9 00:57:03 10° SW 01:02:14 39° WNW 01:05:59 18° N
OAO 3 Rocket 4.3 00:57:52 10° WNW 01:01:04 41° W 01:01:04 41° W
H-2A R/B 2.9 01:03:04 24° SSW 01:06:02 50° W 01:11:20 10° NNW
Cosmos 1980 Rocket 3.4 01:18:33 10° SW 01:22:19 38° WSW 01:22:19 38° WSW
Centaur AC-72 4.5 00:40:41 10° W 01:26:59 48° SSW 01:29:34 42° SSE
Cosmos 2297 Rocket 3.9 01:26:23 10° NW 01:31:11 29° WSW 01:32:04 28° WSW
Milstar 3 3.4 01:29:46 10° W 01:34:44 50° WSW 01:34:44 50° WSW
Atlas Centaur 2 4.4 02:13:57 10° W 02:17:57 31° W 02:17:57 31° W
CENTAUR R/B 3.8 08:57:17 29° NNE 08:57:17 29° NNE 09:00:31 10° NNE
CZ-2C R/B 4.3 09:03:32 10° NNE 09:05:23 23° NNE 09:05:23 23° NNE
Cosmos 1833 Rocket 3.4 09:08:56 47° SE 09:09:42 51° ESE 09:15:09 10° NNE
Lacrosse 5 rocket 3.9 09:22:55 12° NNE 09:22:55 12° NNE 09:23:14 10° NNE
H-2A R/B 3.4 09:18:02 10° SSE 09:20:50 36° SE 09:20:50 36° SE
Cosmos 2142 Rocket 4.3 09:21:50 10° N 09:28:06 85° W 09:34:26 10° S
Cosmos 2082 Rocket 3.5 09:23:38 10° S 09:28:47 39° ESE 09:33:56 10° NE
Meteor 1-16 Rocket 4.2 09:30:07 10° N 09:35:25 71° E 09:40:44 10° SSE
CZ-4B R/B 4.1 09:34:31 10° ESE 09:37:05 20° ENE 09:39:40 10° NNE
ATLAS 3B R/B 2.6 09:36:11 25° SSW 09:40:17 79° ESE 09:46:53 10° NNE
Cosmos 1656 4.3 09:36:24 10° N 09:42:01 56° ENE 09:47:33 10° SE
EPKM 4.2 09:43:42 38° SW 09:45:56 57° SSE 10:08:40 10° E
deb Chang Zheng 4 4.3 09:43:21 10° NNE 09:47:29 50° E 09:51:37 10° S
COSMOS 2406 3.3 09:48:10 52° WNW 09:48:10 52° WNW 09:53:25 10° N
Cosmos 2279 Rocket 3.9 09:47:02 10° NNW 09:53:06 60° W 09:59:09 10° S
ADEOS Rocket 2.6 09:51:37 10° S 09:57:07 66° WSW 10:02:35 10° NNW
Cosmos 292 Rocket 3.7 09:57:37 41° NW 09:59:09 66° WSW 10:03:56 10° S
Cosmos 1697 Rocket 3.9 09:55:18 10° N 10:00:37 41° ENE 10:05:55 10° SE
ERS-2 2.4 09:58:26 10° SSE 10:02:02 67° ENE 10:05:39 10° N
BREEZE-M DEB (TANK) 3.4 10:04:38 23° N 10:04:53 23° NNE 10:06:48 10° E
Cosmos 44 Rocket 3.7 10:04:23 12° NNW 10:09:09 69° ENE 10:14:18 10° SE
Cosmos 1908 3.1 10:08:35 31° NNW 10:10:16 60° W 10:14:06 10° S
Cosmos 1461 3.3 10:10:09 43° W 10:10:57 48° WNW 10:15:27 10° NNE
SL-19 R/B 3.7 10:08:37 10° NNE 10:11:26 69° ESE 10:14:23 10° S
Cosmos 2251 Rocket 3.5 10:09:23 10° SSW 10:14:44 88° WNW 10:20:07 10° NNE
FENGYUN 3A 3.6 10:09:21 10° N 10:14:46 70° WNW 10:20:09 10° SSW
SL-14 R/B 3.1 10:11:01 10° S 10:14:57 77° W 10:18:57 10° N
ISS -1.4 10:19:03 13° NNW 10:19:03 13° NNW 10:20:00 10° N
USA 290 2.0 10:18:28 25° SSW 10:20:08 69° WNW 10:23:21 10° NNE
Cosmos 1980 Rocket 3.9 10:17:32 10° N 10:22:30 32° ENE 10:27:26 10° SE
DELTA 2 R/B (1) 3.6 10:24:50 23° WNW 10:28:28 87° NNE 10:34:05 10° ESE
Cosmos 1300 3.2 10:26:20 10° N 10:30:08 62° E 10:33:53 10° SSE
CZ-2C R/B 2.3 10:30:29 19° SW 10:31:04 20° SSW 10:33:33 10° SSE
ALOS 2.7 10:31:19 10° N 10:35:36 37° WNW 10:39:53 10° SW
Cosmos 1626 3.1 10:36:16 10° SW 10:39:22 25° W 10:42:28 10° NNW
Cosmos 1726 Rocket 3.7 10:35:00 10° N 10:39:27 83° E 10:43:55 10° S
Cosmos 1484 Rocket 3.7 10:38:29 10° NNW 10:41:38 25° WNW 10:44:45 10° SW
CZ-2C R/B 4.3 10:44:14 10° NW 10:44:45 11° NW 10:44:45 11° NW
CENTAUR R/B 4.3 10:44:30 10° NW 10:46:18 11° NW 10:48:10 10° NNW
GOES 2 Rocket 4.4 10:41:08 13° WSW 10:46:22 62° S 10:54:10 10° E
Cosmos 2278 4.3 10:43:53 10° NNW 10:49:27 59° ENE 10:55:00 10° SSE
Aureole 3 4.2 10:45:31 10° N 10:49:58 72° E 10:55:40 10° S
H-2A R/B 3.7 10:47:07 10° NNE 10:50:51 53° E 10:54:37 10° S
Cosmos 1092 Rocket 4.2 10:45:15 10° SSW 10:51:08 48° W 10:57:07 10° N
Cosmos 2228 3.2 10:47:12 10° NNW 10:51:24 48° W 10:55:36 10° SSW
CZ-4B R/B 3.0 10:47:44 10° N 10:51:45 55° WNW 10:55:56 10° SSW
Cosmos 1833 Rocket 4.0 10:50:45 12° W 10:53:53 18° WNW 10:57:44 10° NNW
COSMO-SKYMED 1 2.5 10:49:50 10° S 10:54:09 83° WSW 10:58:31 10° NNW
Cosmos 1606 Rocket 3.8 10:50:15 10° NNW 10:54:32 47° W 10:58:49 10° SSW
Meteor 1-24 Rocket 4.2 10:55:07 10° SW 11:00:09 36° WNW 11:05:24 10° N
ATLAS CENTAUR R/B 2.5 10:58:16 10° S 11:02:10 46° ESE 11:05:53 10° NE
CZ-3 R/B 2.8 10:42:23 11° W 11:03:58 73° S 11:09:50 10° E
Cosmos 407 Rocket 3.6 10:58:55 10° SSW 11:04:01 83° ESE 11:09:10 10° NNE
Meteor 1-31 Rocket 4.2 11:02:58 10° NNW 11:05:41 18° WNW 11:08:25 10° WSW
Envisat 3.9 11:02:37 10° NNE 11:07:37 56° E 11:12:35 10° S
Meteor PRIRODA 4.2 11:05:09 10° N 11:08:29 34° WNW 11:11:49 10° SW
CZ-4B R/B 3.1 11:07:00 10° SW 11:09:13 16° W 11:11:26 10° NW
Meteor 2-10 Rocket 4.2 11:05:19 10° N 11:10:17 58° E 11:15:19 10° SSE
Meteor 2-19 Rocket 4.5 11:05:23 10° S 11:11:29 86° W 11:17:36 10° N
Cosmos 1140 Rocket 3.7 11:06:32 10° S 11:11:39 77° ESE 11:16:46 10° NNE
Cosmos 2369 3.9 11:07:05 10° NNW 11:12:33 51° WSW 11:17:58 10° S
Cosmos 2082 Rocket 3.3 11:08:33 10° WSW 11:12:55 23° WNW 11:17:18 10° N
Okean 1-7 Rocket 4.1 11:09:06 10° SSW 11:13:22 39° W 11:17:37 10° N
